Pensacola NAS, FL

10:32 PM CDT on March 22, 2017 (GMT -0500)
Pensacola Naval Air Station

Weather History for KNPA - November, 2011

Change the Weather History Date:

Wednesday, November 23, 2011

  Actual Average Record
Temperature  
Mean Temperature 62 °F -  
Max Temperature 70 °F 67 °F 79 °F (2010)
Min Temperature 53 °F 48 °F 34 °F (2002)
Degree Days  
Heating Degree Days 4    
Growing Degree Days 12 (Base 50)    
Moisture  
Dew Point 59 °F    
Average Humidity 83    
Maximum Humidity 100    
Minimum Humidity 54    
Precipitation  
Precipitation 0.17 in - - ()
Sea Level Pressure  
Sea Level Pressure 30.10 in    
Wind  
Wind Speed 7 mph (NNW)    
Max Wind Speed 16 mph    
Max Gust Speed 22 mph    
Visibility 10 miles    
Events Rain    
Averages and records for this station are not official NWS values.
T = Trace of Precipitation, MM = Missing Value Source: NWS Daily Summary

Daily Weather History Graph

Daily Weather History Graph

Search for Another Location

Airport or City:

Trip Planner

Search our weather history database for the weather conditions in past years. The results will help you decide how hot, cold, wet, or windy it might be!

Date:

Astronomy

Nov. 23, 2011 Rise Set
Actual Time 6:21 AM CST 4:49 PM CST
Civil Twilight 5:55 AM CST 5:15 PM CST
Nautical Twilight 5:26 AM CST 5:44 PM CST
Astronomical Twilight 4:57 AM CST 6:13 PM CST
Moon 4:28 AM CST 3:29 PM CST
Length of Visible Light 11h 19m
Length of Day
10h 28m
Waning Crescent, 3% of the Moon is Illuminated
Nov 23
Waning Crescent
Nov 25
New
Dec 2
First Quarter
Dec 10
Full
Dec 17
Last Quarter

Hourly Weather History & Observations

Time (CST) Temp. Dew Point Humidity Pressure Visibility Wind Dir Wind Speed Gust Speed Precip Events Conditions
12:25 AM 69.8 °F 68.0 °F 94% 30.05 in 4.0 mi West 4.6 mph - 0.06 in Rain Heavy Rain
12:56 AM 68.0 °F 66.9 °F 96% 30.04 in 4.0 mi SSW 4.6 mph - 0.15 in Rain Rain
1:56 AM 68.0 °F 66.9 °F 96% 30.03 in 7.0 mi SW 10.4 mph - 0.02 in   Mostly Cloudy
2:03 AM 68.0 °F 66.2 °F 94% 30.02 in 8.0 mi WSW 6.9 mph - N/A   Mostly Cloudy
2:27 AM 66.2 °F 66.2 °F 100% 30.02 in 8.0 mi WSW 3.5 mph - N/A   Mostly Cloudy
2:56 AM 68.0 °F 66.9 °F 96% 30.03 in 10.0 mi NNW 4.6 mph - N/A   Overcast
3:09 AM 66.2 °F 66.2 °F 100% 30.02 in 10.0 mi NNW 8.1 mph - N/A   Overcast
3:23 AM 66.2 °F 66.2 °F 100% 30.02 in 10.0 mi NNW 5.8 mph - N/A   Overcast
3:37 AM 66.2 °F 66.2 °F 100% 30.02 in 10.0 mi NNW 9.2 mph - N/A   Overcast
3:49 AM 66.2 °F 64.4 °F 94% 30.03 in 10.0 mi NNW 8.1 mph - N/A   Overcast
3:56 AM 66.9 °F 64.9 °F 93% 30.03 in 10.0 mi NNW 6.9 mph - N/A   Overcast
4:56 AM 66.0 °F 64.0 °F 93% 30.04 in 10.0 mi North 4.6 mph - N/A   Overcast
5:13 AM 66.2 °F 64.4 °F 94% 30.04 in 10.0 mi North 5.8 mph - N/A   Overcast
5:26 AM 66.2 °F 64.4 °F 94% 30.04 in 10.0 mi North 3.5 mph - N/A   Overcast
5:56 AM 64.9 °F 63.0 °F 93% 30.06 in 10.0 mi North 5.8 mph - N/A   Scattered Clouds
6:56 AM 64.0 °F 61.0 °F 90% 30.09 in 10.0 mi North 6.9 mph - N/A   Scattered Clouds
7:41 AM 64.4 °F 60.8 °F 88% 30.10 in 10.0 mi North 5.8 mph - N/A   Mostly Cloudy
7:56 AM 64.0 °F 61.0 °F 90% 30.11 in 10.0 mi North 6.9 mph - N/A   Overcast
8:56 AM 66.0 °F 59.0 °F 78% 30.14 in 10.0 mi NNW 16.1 mph 21.9 mph N/A   Mostly Cloudy
9:32 AM 64.4 °F 55.4 °F 73% 30.14 in 10.0 mi North 11.5 mph 19.6 mph N/A   Mostly Cloudy
9:56 AM 64.9 °F 57.0 °F 75% 30.15 in 10.0 mi North 10.4 mph - N/A   Mostly Cloudy
10:56 AM 66.9 °F 55.0 °F 66% 30.13 in 10.0 mi North 11.5 mph 19.6 mph N/A   Scattered Clouds
11:56 AM 68.0 °F 53.1 °F 59% 30.11 in 10.0 mi NE 10.4 mph - N/A   Partly Cloudy
12:56 PM 69.1 °F 52.0 °F 54% 30.10 in 10.0 mi North 12.7 mph - N/A   Partly Cloudy
1:56 PM 69.1 °F 53.1 °F 57% 30.09 in 10.0 mi NNW 6.9 mph - N/A   Clear
2:56 PM 70.0 °F 53.1 °F 55% 30.09 in 10.0 mi North 8.1 mph - N/A   Clear
3:56 PM 68.0 °F 52.0 °F 56% 30.10 in 10.0 mi North 9.2 mph 17.3 mph N/A   Clear
4:56 PM 64.0 °F 51.1 °F 63% 30.12 in 10.0 mi North 5.8 mph - N/A   Clear
5:56 PM 60.1 °F 52.0 °F 75% 30.15 in 10.0 mi North 3.5 mph - N/A   Clear
6:56 PM 59.0 °F 52.0 °F 78% 30.18 in 10.0 mi NNW 5.8 mph - N/A   Clear
7:56 PM 57.0 °F 51.1 °F 81% 30.20 in 10.0 mi North 6.9 mph - N/A   Clear
8:56 PM 55.9 °F 50.0 °F 80% 30.22 in 10.0 mi North 5.8 mph - N/A   Clear
9:56 PM 55.0 °F 48.9 °F 80% 30.22 in 10.0 mi North 6.9 mph - N/A   Clear
10:56 PM 53.1 °F 48.0 °F 83% 30.21 in 10.0 mi North 8.1 mph - N/A   Clear
11:56 PM 53.1 °F 48.0 °F 83% 30.20 in 10.0 mi North 8.1 mph - N/A   Clear